EWG3MB EDDL-EDDB

Flight info

Callsign EWG3MB
Flight time 0h 48m
Altitude 35000
Route MEVEL4T MEVEL L179 MISRI Z851 ROBEG DCT BATEL T207 OGBER OGBER1R
Aircraft A320/M-SDE3FGHIRWY/LB1

Departure

Time 2026-05-04 19:13
Airport Düsseldorf Airport (EDDL)

Arrival

Time 2026-05-04 20:01
Airport Berlin Brandenburg Airport (EDDB)
Time Latitude Longitude Altitude Speed Heading
2026-05-04 18:09 51.27780 6.76339 131 ft 0 kts 162°
2026-05-04 18:41 51.27787 6.76336 128 ft 4 kts 162°
2026-05-04 18:41 51.27812 6.76321 129 ft 4 kts 153°
2026-05-04 18:41 51.27833 6.76298 127 ft 4 kts 121°
2026-05-04 18:41 51.27839 6.76265 129 ft 4 kts 94°
2026-05-04 18:42 51.27840 6.76222 130 ft 4 kts 93°
2026-05-04 18:42 51.27841 6.76179 129 ft 4 kts 91°
2026-05-04 18:42 51.27841 6.76136 128 ft 4 kts 85°
2026-05-04 18:42 51.27837 6.76094 129 ft 4 kts 63°
2026-05-04 18:43 51.27821 6.76066 126 ft 4 kts 32°
2026-05-04 18:43 51.27797 6.76048 125 ft 4 kts 12°
2026-05-04 18:43 51.27770 6.76043 126 ft 4 kts
2026-05-04 18:43 51.27761 6.76043 127 ft 0 kts
2026-05-04 18:45 51.27781 6.76043 129 ft 9 kts
2026-05-04 18:46 51.27855 6.76046 126 ft 10 kts
2026-05-04 18:46 51.27923 6.76048 130 ft 9 kts
2026-05-04 18:46 51.27983 6.76046 130 ft 8 kts 357°
2026-05-04 18:46 51.28038 6.76048 128 ft 7 kts
2026-05-04 18:47 51.28087 6.76042 130 ft 7 kts 340°
2026-05-04 18:47 51.28139 6.76046 125 ft 8 kts 33°
2026-05-04 18:47 51.28182 6.76132 126 ft 13 kts 53°
2026-05-04 18:47 51.28242 6.76258 127 ft 18 kts 52°
2026-05-04 18:48 51.28340 6.76462 124 ft 24 kts 53°
2026-05-04 18:48 51.28425 6.76641 122 ft 10 kts 52°
2026-05-04 18:48 51.28462 6.76718 124 ft 8 kts 53°
2026-05-04 18:48 51.28495 6.76787 122 ft 7 kts 53°
2026-05-04 18:49 51.28543 6.76891 125 ft 18 kts 53°
2026-05-04 18:49 51.28639 6.77089 127 ft 22 kts 53°
2026-05-04 18:49 51.28723 6.77267 128 ft 20 kts 52°
2026-05-04 18:49 51.28808 6.77445 126 ft 21 kts 53°
2026-05-04 18:50 51.28883 6.77602 128 ft 12 kts 53°
2026-05-04 18:50 51.28931 6.77704 124 ft 11 kts 52°
2026-05-04 18:50 51.28974 6.77793 127 ft 11 kts 53°
2026-05-04 18:50 51.29031 6.77912 129 ft 17 kts 52°
2026-05-04 18:51 51.29080 6.78017 129 ft 9 kts 53°
2026-05-04 18:51 51.29109 6.78078 133 ft 5 kts 53°
2026-05-04 18:51 51.29122 6.78105 133 ft 3 kts 52°
2026-05-04 18:51 51.29152 6.78167 135 ft 10 kts 53°
2026-05-04 18:52 51.29184 6.78236 138 ft 5 kts 52°
2026-05-04 18:52 51.29216 6.78303 140 ft 8 kts 53°
2026-05-04 18:52 51.29240 6.78354 142 ft 5 kts 53°
2026-05-04 18:52 51.29286 6.78450 147 ft 10 kts 53°
2026-05-04 18:53 51.29306 6.78491 148 ft 0 kts 53°
2026-05-04 18:59 51.29307 6.78493 148 ft 1 kts 53°
2026-05-04 19:00 51.29311 6.78503 149 ft 0 kts 53°
2026-05-04 19:00 51.29328 6.78532 150 ft 5 kts 43°
2026-05-04 19:00 51.29340 6.78547 151 ft 0 kts 34°
2026-05-04 19:00 51.29348 6.78554 151 ft 1 kts 29°
2026-05-04 19:01 51.29348 6.78555 151 ft 0 kts 29°
2026-05-04 19:05 51.29349 6.78555 151 ft 1 kts 29°
2026-05-04 19:05 51.29392 6.78572 152 ft 6 kts
2026-05-04 19:05 51.29400 6.78572 152 ft 0 kts 356°
2026-05-04 19:08 51.29408 6.78571 152 ft 5 kts 357°
2026-05-04 19:08 51.29434 6.78568 152 ft 0 kts 355°
2026-05-04 19:11 51.29481 6.78562 153 ft 9 kts 354°
2026-05-04 19:12 51.29523 6.78503 153 ft 11 kts 283°
2026-05-04 19:12 51.29491 6.78411 152 ft 17 kts 232°
2026-05-04 19:12 51.29246 6.77900 139 ft 94 kts 233°
2026-05-04 19:13 51.28728 6.76814 133 ft 149 kts 232°
2026-05-04 19:13 51.28051 6.75448 648 ft 155 kts 231°
2026-05-04 19:13 51.27412 6.74040 1327 ft 158 kts 234°
2026-05-04 19:13 51.26805 6.72510 1765 ft 176 kts 249°
2026-05-04 19:14 51.26876 6.70474 2099 ft 199 kts 297°
2026-05-04 19:14 51.27925 6.69033 2715 ft 205 kts 336°
2026-05-04 19:14 51.29304 6.68498 3428 ft 204 kts 354°
2026-05-04 19:14 51.30778 6.68601 3836 ft 224 kts
2026-05-04 19:15 51.32416 6.68834 4234 ft 248 kts
2026-05-04 19:15 51.34220 6.69061 4726 ft 269 kts
2026-05-04 19:15 51.36112 6.69281 5540 ft 276 kts
2026-05-04 19:15 51.38039 6.69492 6438 ft 279 kts
2026-05-04 19:16 51.39992 6.69644 7307 ft 282 kts
2026-05-04 19:16 51.41964 6.69680 8192 ft 285 kts
2026-05-04 19:16 51.43953 6.69667 9081 ft 288 kts
2026-05-04 19:16 51.45963 6.69642 9954 ft 290 kts
2026-05-04 19:17 51.48040 6.69621 10375 ft 310 kts
2026-05-04 19:17 51.50267 6.69608 10655 ft 331 kts
2026-05-04 19:17 51.52627 6.69600 11249 ft 340 kts
2026-05-04 19:17 51.54978 6.69603 11952 ft 346 kts
2026-05-04 19:18 51.57411 6.69648 12677 ft 350 kts
2026-05-04 19:18 51.59818 6.70353 13382 ft 353 kts 18°
2026-05-04 19:18 51.62072 6.71957 14041 ft 356 kts 32°
2026-05-04 19:18 51.64030 6.74388 14724 ft 357 kts 45°
2026-05-04 19:19 51.65622 6.77469 15349 ft 360 kts 54°
2026-05-04 19:19 51.67131 6.80755 15859 ft 368 kts 55°
2026-05-04 19:19 51.68664 6.84100 16418 ft 374 kts 55°
2026-05-04 19:19 51.70222 6.87487 17024 ft 379 kts 55°
2026-05-04 19:20 51.71803 6.90919 17619 ft 383 kts 55°
2026-05-04 19:20 51.73400 6.94395 18206 ft 387 kts 55°
2026-05-04 19:20 51.75008 6.97898 18719 ft 391 kts 55°
2026-05-04 19:20 51.76632 7.01445 19216 ft 395 kts 55°
2026-05-04 19:21 51.78272 7.05042 19741 ft 399 kts 55°
2026-05-04 19:21 51.79921 7.08668 20236 ft 403 kts 55°
2026-05-04 19:21 51.81584 7.12334 20739 ft 406 kts 55°
2026-05-04 19:21 51.83261 7.16036 21232 ft 410 kts 55°
2026-05-04 19:22 51.84940 7.19754 21701 ft 413 kts 56°
2026-05-04 19:22 51.86420 7.23758 22185 ft 416 kts 64°
2026-05-04 19:22 51.87776 7.27915 22640 ft 419 kts 64°
2026-05-04 19:22 51.89140 7.32112 23092 ft 423 kts 64°
2026-05-04 19:23 51.90512 7.36359 23477 ft 428 kts 65°
2026-05-04 19:23 51.91551 7.40857 23816 ft 430 kts 75°
2026-05-04 19:23 51.92437 7.45512 24183 ft 433 kts 75°
2026-05-04 19:23 51.93323 7.50198 24550 ft 436 kts 75°
2026-05-04 19:24 51.94211 7.54924 24904 ft 440 kts 75°
2026-05-04 19:24 51.95104 7.59683 25256 ft 443 kts 75°
2026-05-04 19:24 51.96002 7.64478 25608 ft 446 kts 75°
2026-05-04 19:24 51.96905 7.69310 25948 ft 450 kts 75°
2026-05-04 19:25 51.97814 7.74187 26288 ft 453 kts 75°
2026-05-04 19:25 51.98725 7.79090 26622 ft 456 kts 75°
2026-05-04 19:25 51.99629 7.83967 26948 ft 459 kts 75°
2026-05-04 19:25 52.00550 7.88948 27244 ft 463 kts 75°
2026-05-04 19:26 52.01475 7.93973 27564 ft 466 kts 75°
2026-05-04 19:26 52.02403 7.99032 27912 ft 469 kts 75°
2026-05-04 19:26 52.03330 8.04110 28237 ft 472 kts 75°
2026-05-04 19:26 52.04267 8.09247 28576 ft 475 kts 75°
2026-05-04 19:27 52.05204 8.14398 28883 ft 478 kts 75°
2026-05-04 19:27 52.06151 8.19608 29191 ft 481 kts 75°
2026-05-04 19:27 52.07099 8.24829 29489 ft 484 kts 75°
2026-05-04 19:27 52.08053 8.30095 29784 ft 486 kts 75°
2026-05-04 19:28 52.09006 8.35380 30060 ft 489 kts 76°
2026-05-04 19:28 52.09961 8.40707 30255 ft 493 kts 75°
2026-05-04 19:28 52.10922 8.46069 30473 ft 496 kts 75°
2026-05-04 19:28 52.11890 8.51473 30715 ft 498 kts 75°
2026-05-04 19:29 52.12855 8.56891 30917 ft 499 kts 75°
2026-05-04 19:29 52.14745 8.67568 30977 ft 481 kts 76°
2026-05-04 19:30 52.16577 8.77975 30976 ft 477 kts 76°
2026-05-04 19:30 52.18394 8.88352 30976 ft 476 kts 76°
2026-05-04 19:31 52.20207 8.98731 30974 ft 475 kts 76°
2026-05-04 19:31 52.22003 9.09099 30974 ft 475 kts 76°
2026-05-04 19:32 52.23777 9.19462 30974 ft 475 kts 76°
2026-05-04 19:32 52.25536 9.29753 30971 ft 475 kts 76°
2026-05-04 19:33 52.27318 9.40209 30973 ft 475 kts 76°
2026-05-04 19:33 52.29082 9.50597 30970 ft 474 kts 76°
2026-05-04 19:34 52.30802 9.60927 30973 ft 474 kts 76°
2026-05-04 19:34 52.32531 9.71319 30971 ft 474 kts 76°
2026-05-04 19:35 52.34261 9.81718 30965 ft 474 kts 76°
2026-05-04 19:35 52.35979 9.92119 30980 ft 474 kts 77°
2026-05-04 19:36 52.37695 10.02546 30962 ft 473 kts 76°
2026-05-04 19:36 52.39400 10.12963 30964 ft 473 kts 76°
2026-05-04 19:37 52.41085 10.23360 30963 ft 472 kts 77°
2026-05-04 19:37 52.42747 10.33695 30978 ft 472 kts 77°
2026-05-04 19:38 52.44413 10.44099 30982 ft 472 kts 77°
2026-05-04 19:38 52.46070 10.54518 30965 ft 472 kts 76°
2026-05-04 19:39 52.47715 10.64937 30633 ft 471 kts 76°
2026-05-04 19:39 52.48532 10.70130 30306 ft 468 kts 76°
2026-05-04 19:39 52.49342 10.75290 29969 ft 466 kts 77°
2026-05-04 19:39 52.50144 10.80419 29602 ft 463 kts 77°
2026-05-04 19:40 52.50938 10.85525 29230 ft 460 kts 77°
2026-05-04 19:40 52.51726 10.90602 28884 ft 457 kts 77°
2026-05-04 19:40 52.52504 10.95645 28520 ft 454 kts 77°
2026-05-04 19:40 52.53274 11.00662 28169 ft 451 kts 77°
2026-05-04 19:41 52.54037 11.05637 27792 ft 448 kts 77°
2026-05-04 19:41 52.54650 11.10637 27420 ft 444 kts 85°
2026-05-04 19:41 52.54846 11.15666 26952 ft 439 kts 90°
2026-05-04 19:41 52.54959 11.20665 26490 ft 436 kts 90°
2026-05-04 19:42 52.55072 11.25620 26046 ft 433 kts 90°
2026-05-04 19:42 52.55186 11.30541 25593 ft 430 kts 90°
2026-05-04 19:42 52.55299 11.35417 25145 ft 426 kts 90°
2026-05-04 19:42 52.55409 11.40254 24723 ft 423 kts 90°
2026-05-04 19:43 52.55513 11.45022 24301 ft 420 kts 90°
2026-05-04 19:43 52.55614 11.49848 23875 ft 417 kts 90°
2026-05-04 19:43 52.55708 11.54615 23445 ft 414 kts 90°
2026-05-04 19:43 52.55800 11.59336 22935 ft 412 kts 90°
2026-05-04 19:44 52.55889 11.64015 22450 ft 408 kts 90°
2026-05-04 19:44 52.55977 11.68660 21969 ft 405 kts 90°
2026-05-04 19:44 52.56064 11.73209 21509 ft 402 kts 90°
2026-05-04 19:44 52.56152 11.77774 21047 ft 398 kts 90°
2026-05-04 19:45 52.56238 11.82301 20593 ft 395 kts 90°
2026-05-04 19:45 52.56321 11.86815 20113 ft 393 kts 90°
2026-05-04 19:45 52.56399 11.91302 19630 ft 391 kts 90°
2026-05-04 19:45 52.56472 11.95760 19140 ft 390 kts 90°
2026-05-04 19:46 52.56542 12.00202 18663 ft 388 kts 91°
2026-05-04 19:46 52.56611 12.04629 18174 ft 386 kts 90°
2026-05-04 19:46 52.56679 12.09034 17641 ft 385 kts 90°
2026-05-04 19:46 52.56559 12.13398 17108 ft 380 kts 104°
2026-05-04 19:47 52.55635 12.17399 16586 ft 373 kts 124°
2026-05-04 19:47 52.54148 12.20857 16076 ft 370 kts 128°
2026-05-04 19:47 52.52687 12.24329 15572 ft 369 kts 127°
2026-05-04 19:47 52.51236 12.27792 15078 ft 367 kts 127°
2026-05-04 19:48 52.49784 12.31235 14593 ft 366 kts 127°
2026-05-04 19:48 52.48333 12.34655 14114 ft 364 kts 127°
2026-05-04 19:48 52.46882 12.38052 13629 ft 363 kts 127°
2026-05-04 19:48 52.45434 12.41428 13088 ft 361 kts 127°
2026-05-04 19:49 52.44000 12.44779 12574 ft 358 kts 127°
2026-05-04 19:49 52.42575 12.48118 12050 ft 356 kts 127°
2026-05-04 19:49 52.41163 12.51436 11544 ft 354 kts 127°
2026-05-04 19:49 52.39759 12.54724 11046 ft 351 kts 127°
2026-05-04 19:50 52.38366 12.57991 10562 ft 349 kts 127°
2026-05-04 19:50 52.36984 12.61239 10075 ft 347 kts 127°
2026-05-04 19:50 52.35615 12.64467 9561 ft 344 kts 127°
2026-05-04 19:50 52.34254 12.67672 9048 ft 342 kts 127°
2026-05-04 19:51 52.32918 12.70800 8530 ft 339 kts 128°
2026-05-04 19:51 52.31293 12.73533 8013 ft 332 kts 148°
2026-05-04 19:51 52.29223 12.74985 7505 ft 323 kts 171°
2026-05-04 19:51 52.27013 12.74993 7025 ft 316 kts 191°
2026-05-04 19:52 52.24838 12.74529 6534 ft 315 kts 186°
2026-05-04 19:52 52.22660 12.74316 6031 ft 313 kts 182°
2026-05-04 19:52 52.20530 12.74931 5522 ft 313 kts 159°
2026-05-04 19:52 52.18746 12.76926 5075 ft 312 kts 133°
2026-05-04 19:53 52.17695 12.79904 4969 ft 298 kts 107°
2026-05-04 19:53 52.17562 12.83149 4982 ft 281 kts 80°
2026-05-04 19:53 52.18237 12.86011 4983 ft 263 kts 62°
2026-05-04 19:53 52.19110 12.88567 4864 ft 257 kts 60°
2026-05-04 19:54 52.19699 12.90230 4692 ft 254 kts 60°
2026-05-04 19:54 52.20866 12.93517 4335 ft 251 kts 60°
2026-05-04 19:54 52.21453 12.95181 4175 ft 250 kts 60°
2026-05-04 19:54 52.22360 12.97579 3975 ft 248 kts 54°
2026-05-04 19:55 52.23238 13.00001 3826 ft 248 kts 65°
2026-05-04 19:55 52.24113 13.03435 3627 ft 247 kts 69°
2026-05-04 19:55 52.24735 13.06044 3483 ft 246 kts 68°
2026-05-04 19:55 52.25362 13.08641 3342 ft 246 kts 68°
2026-05-04 19:56 52.25787 13.10397 3232 ft 245 kts 68°
2026-05-04 19:56 52.26413 13.12981 3105 ft 244 kts 68°
2026-05-04 19:56 52.27027 13.15520 2997 ft 235 kts 68°
2026-05-04 19:56 52.27607 13.17920 2991 ft 219 kts 68°
2026-05-04 19:57 52.28155 13.20191 3001 ft 214 kts 68°
2026-05-04 19:57 52.28697 13.22441 3000 ft 212 kts 68°
2026-05-04 19:57 52.29230 13.24656 2929 ft 206 kts 68°
2026-05-04 19:57 52.29745 13.26796 2721 ft 198 kts 68°
2026-05-04 19:58 52.30237 13.28843 2485 ft 190 kts 68°
2026-05-04 19:58 52.30716 13.30838 2246 ft 187 kts 68°
2026-05-04 19:58 52.31181 13.32777 1993 ft 185 kts 67°
2026-05-04 19:58 52.31649 13.34733 1743 ft 184 kts 67°
2026-05-04 19:59 52.32112 13.36664 1486 ft 178 kts 66°
2026-05-04 19:59 52.32542 13.38467 1279 ft 163 kts 66°
2026-05-04 19:59 52.32935 13.40109 1068 ft 147 kts 66°
2026-05-04 19:59 52.33293 13.41609 850 ft 139 kts 67°
2026-05-04 20:00 52.33642 13.43058 658 ft 136 kts 66°
2026-05-04 20:00 52.33977 13.44467 470 ft 131 kts 68°
2026-05-04 20:00 52.34303 13.45850 321 ft 130 kts 68°
2026-05-04 20:00 52.34635 13.47226 193 ft 129 kts 68°
2026-05-04 20:01 52.34943 13.48508 155 ft 104 kts 68°
2026-05-04 20:01 52.35139 13.49354 154 ft 55 kts 69°
2026-05-04 20:01 52.35254 13.49798 154 ft 36 kts 58°
2026-05-04 20:01 52.35425 13.50060 154 ft 26 kts 39°
2026-05-04 20:02 52.35561 13.50240 154 ft 26 kts 39°
2026-05-04 20:02 52.35637 13.50459 154 ft 23 kts 69°
2026-05-04 20:02 52.35694 13.50699 154 ft 20 kts 69°
2026-05-04 20:02 52.35755 13.50827 154 ft 14 kts
2026-05-04 20:03 52.35849 13.50777 154 ft 15 kts 339°
2026-05-04 20:03 52.35926 13.50860 155 ft 16 kts 68°
2026-05-04 20:03 52.35967 13.51034 155 ft 16 kts 68°
2026-05-04 20:03 52.35998 13.51156 155 ft 4 kts 57°
2026-05-04 20:04 52.36028 13.51151 155 ft 9 kts 342°
2026-05-04 20:04 52.36069 13.51125 155 ft 4 kts 339°
2026-05-04 20:04 52.36082 13.51117 155 ft 0 kts 339°